Change the Weather History Date:

Friday, July 19, 2013

  Actual Average (KAPN) Record (KAPN)
Temperature  
Mean Temperature 74 °F 68 °F  
Max Temperature 86 °F 80 °F 93 °F (1987)
Min Temperature 63 °F 56 °F 39 °F (1965)
Degree Days  
Heating Degree Days 0 1  
Month to date heating degree days 29  
Since 1 June heating degree days 172  
Since 1 July heating degree days 29  
Cooling Degree Days 10 4  
Month to date cooling degree days 73  
Year to date cooling degree days 142  
Since 1 June cooling degree days 129  
Growing Degree Days 24 (Base 50)    
Moisture  
Dew Point 67 °F    
Average Humidity 78    
Maximum Humidity 93    
Minimum Humidity 55    
Precipitation  
Precipitation 0.00 in 0.10 in 2.01 in (1975)
Month to date precipitation 1.89  
Year to date precipitation 14.41  
Sea Level Pressure  
Sea Level Pressure 29.71 in    
Wind  
Wind Speed 7 mph (West)    
Max Wind Speed 17 mph    
Max Gust Speed 33 mph    
Visibility 10 miles    
Events Rain    
T = Trace of Precipitation, MM = Missing Value Source: NWS Daily Summary

Daily Weather History Graph

Daily Weather History Graph

Search for Another Location

Airport or City:

Trip Planner

Search our weather history database for the weather conditions in past years. The results will help you decide how hot, cold, wet, or windy it might be!

Date:

Astronomy

Jul. 19, 2013 Rise Set
Actual Time 6:05 AM EDT 9:17 PM EDT
Civil Twilight 5:29 AM EDT 9:52 PM EDT
Nautical Twilight 4:43 AM EDT 10:38 PM EDT
Astronomical Twilight 3:46 AM EDT 11:35 PM EDT
Moon 6:18 PM EDT (7/19) 2:46 AM EDT (7/19)
Length of Visible Light 16h 23m
Length of Day
15h 11m
Waxing Gibbous, 86% of the Moon is Illuminated
Jul 19
Waxing Gibbous
Jul 22
Full
Jul 29
Last Quarter
Aug 6
New
Aug 14
First Quarter

Hourly Weather History & Observations

Time (EDT) Temp. Heat Index Dew Point Humidity Pressure Visibility Wind Dir Wind Speed Gust Speed Precip Events Conditions
12:15 AM 71.6 °F - 68.0 °F 88% 29.81 in 10.0 mi Calm Calm - N/A   Clear
12:35 AM 71.1 °F - 68.2 °F 91% 29.80 in 10.0 mi Calm Calm - N/A   Clear
12:54 AM 71.6 °F - 68.4 °F 89% 29.80 in 10.0 mi SSE 3.5 mph - N/A   Clear
1:15 AM 72.0 °F - 68.7 °F 89% 29.79 in 10.0 mi SSE 5.8 mph - N/A   Clear
1:34 AM 73.2 °F - 69.1 °F 87% 29.78 in 10.0 mi South 5.8 mph - N/A   Clear
1:55 AM 76.3 °F - 69.8 °F 80% 29.77 in 10.0 mi SW 6.9 mph - N/A   Clear
2:15 AM 79.3 °F - 70.0 °F 73% 29.77 in 10.0 mi SW 9.2 mph - N/A   Clear
2:34 AM 80.1 °F 83.2 °F 69.8 °F 71% 29.76 in 10.0 mi SW 9.2 mph - N/A   Clear
2:55 AM 80.6 °F 83.9 °F 69.8 °F 70% 29.74 in 10.0 mi WSW 12.7 mph 17.3 mph N/A   Clear
3:14 AM 81.1 °F 84.5 °F 69.8 °F 68% 29.74 in 10.0 mi WSW 15.0 mph 19.6 mph N/A   Scattered Clouds
3:35 AM 74.3 °F - 67.3 °F 79% 29.78 in 10.0 mi NNW 8.1 mph - N/A   Mostly Cloudy
3:55 AM 71.8 °F - 66.6 °F 84% 29.77 in 10.0 mi NW 5.8 mph - N/A   Overcast
4:14 AM 71.2 °F - 66.7 °F 86% 29.77 in 10.0 mi Calm Calm - N/A   Overcast
4:35 AM 70.3 °F - 66.4 °F 87% 29.75 in 10.0 mi Calm Calm - N/A   Mostly Cloudy
4:54 AM 69.8 °F - 66.2 °F 88% 29.75 in 10.0 mi Calm Calm - N/A   Scattered Clouds
5:15 AM 69.1 °F - 66.2 °F 91% 29.74 in 10.0 mi SSE 4.6 mph - N/A   Scattered Clouds
5:35 AM 69.8 °F - 66.2 °F 88% 29.73 in 10.0 mi SSE 4.6 mph - N/A   Clear
5:54 AM 69.8 °F - 66.2 °F 88% 29.72 in 10.0 mi South 6.9 mph - N/A   Clear
6:15 AM 69.8 °F - 66.2 °F 88% 29.71 in 10.0 mi SSE 4.6 mph - N/A   Clear
6:35 AM 70.5 °F - 66.0 °F 86% 29.71 in 10.0 mi South 6.9 mph - N/A   Clear
6:54 AM 70.7 °F - 66.4 °F 86% 29.70 in 10.0 mi South 8.1 mph - N/A   Clear
7:15 AM 72.7 °F - 67.3 °F 83% 29.69 in 10.0 mi South 9.2 mph - N/A   Clear
7:34 AM 75.2 °F - 68.2 °F 79% 29.68 in 10.0 mi SSW 8.1 mph - N/A   Clear
7:55 AM 77.7 °F - 69.1 °F 75% 29.66 in 10.0 mi SSW 11.5 mph - N/A   Clear
8:15 AM 80.4 °F 83.8 °F 70.2 °F 71% 29.65 in 10.0 mi SSW 10.4 mph 20.7 mph N/A   Clear
8:34 AM 82.0 °F 86.1 °F 70.5 °F 68% 29.65 in 10.0 mi SW 12.7 mph 18.4 mph N/A   Clear
8:55 AM 75.2 °F - 64.9 °F 70% 29.70 in 10.0 mi NNW 15.0 mph 33.4 mph N/A   Mostly Cloudy
9:14 AM 70.7 °F - 65.1 °F 82% 29.73 in 10.0 mi NNW 12.7 mph 19.6 mph N/A   Overcast
9:35 AM 68.7 °F - 65.7 °F 90% 29.72 in 5.0 mi NNW 6.9 mph - N/A Rain Light Rain
9:55 AM 68.5 °F - 66.6 °F 93% 29.71 in 10.0 mi North 4.6 mph - N/A Rain Light Rain
10:14 AM 69.3 °F - 66.9 °F 92% 29.69 in 10.0 mi Calm Calm - N/A   Overcast
10:35 AM 69.8 °F - 67.3 °F 92% 29.71 in 7.0 mi NNW 4.6 mph - N/A Rain Light Rain
10:54 AM 69.4 °F - 66.6 °F 91% 29.69 in 7.0 mi SW 3.5 mph - N/A Rain Heavy Rain
11:15 AM 70.0 °F - 67.3 °F 91% 29.69 in 10.0 mi SW 4.6 mph - N/A Rain Light Rain
11:34 AM 69.4 °F - 67.1 °F 92% 29.68 in 5.0 mi South 12.7 mph - N/A Rain Rain
11:55 AM 70.7 °F - 68.2 °F 92% 29.65 in 10.0 mi SW 11.5 mph - N/A Rain Light Rain
12:14 PM 71.6 °F - 68.9 °F 91% 29.65 in 10.0 mi SW 9.2 mph - N/A   Scattered Clouds
12:35 PM 73.6 °F - 70.7 °F 91% 29.64 in 10.0 mi SW 6.9 mph - N/A   Clear
12:55 PM 77.4 °F - 72.5 °F 85% 29.63 in 10.0 mi SW 11.5 mph 20.7 mph N/A   Clear
1:15 PM 79.2 °F - 72.7 °F 80% 29.65 in 10.0 mi West 11.5 mph 21.9 mph N/A   Clear
1:35 PM 82.2 °F 87.8 °F 73.2 °F 74% 29.65 in 10.0 mi WSW 13.8 mph 27.6 mph N/A   Clear
1:54 PM 82.4 °F 87.9 °F 72.9 °F 73% 29.66 in 10.0 mi WSW 10.4 mph 19.6 mph N/A   Scattered Clouds
2:15 PM 82.8 °F 88.4 °F 73.0 °F 72% 29.66 in 10.0 mi West 15.0 mph 19.6 mph N/A   Mostly Cloudy
2:35 PM 85.6 °F 92.2 °F 72.5 °F 65% 29.66 in 10.0 mi West 16.1 mph 24.2 mph N/A   Scattered Clouds
2:54 PM 84.0 °F 89.3 °F 71.4 °F 66% 29.64 in 10.0 mi West 12.7 mph 19.6 mph N/A   Clear
3:15 PM 85.8 °F 90.8 °F 70.3 °F 60% 29.64 in 10.0 mi West 16.1 mph 24.2 mph N/A   Scattered Clouds
3:34 PM 86.5 °F 90.7 °F 69.1 °F 56% 29.64 in 10.0 mi West 17.3 mph 23.0 mph N/A   Clear
3:55 PM 86.7 °F 90.6 °F 68.5 °F 55% 29.63 in 10.0 mi WSW 15.0 mph 28.8 mph N/A   Clear
4:15 PM 85.8 °F 89.1 °F 68.2 °F 55% 29.64 in 10.0 mi West 10.4 mph 21.9 mph N/A   Clear
4:34 PM 83.8 °F 87.5 °F 69.1 °F 61% 29.66 in 7.0 mi NNW 16.1 mph 24.2 mph N/A Rain Heavy Rain
4:55 PM 72.0 °F - 65.7 °F 80% 29.67 in 10.0 mi NNW 10.4 mph 18.4 mph N/A   Mostly Cloudy
5:15 PM 74.7 °F - 66.7 °F 76% 29.66 in 10.0 mi NNW 5.8 mph - N/A   Scattered Clouds
5:34 PM 75.7 °F - 68.2 °F 77% 29.67 in 10.0 mi NW 6.9 mph - N/A   Scattered Clouds
5:55 PM 77.7 °F - 69.1 °F 75% 29.67 in 10.0 mi North 11.5 mph 16.1 mph N/A   Scattered Clouds
6:14 PM 78.4 °F - 69.3 °F 73% 29.67 in 10.0 mi NW 12.7 mph 20.7 mph N/A   Scattered Clouds
6:35 PM 78.8 °F - 69.3 °F 72% 29.67 in 10.0 mi NW 10.4 mph - N/A   Clear
6:55 PM 77.4 °F - 68.2 °F 73% 29.68 in 10.0 mi NW 9.2 mph - N/A   Mostly Cloudy
7:14 PM 76.5 °F - 67.6 °F 74% 29.69 in 10.0 mi NW 15.0 mph 21.9 mph N/A   Mostly Cloudy
7:35 PM 76.1 °F - 66.0 °F 71% 29.70 in 10.0 mi NW 10.4 mph 16.1 mph N/A   Overcast
7:54 PM 76.1 °F - 65.1 °F 69% 29.71 in 10.0 mi NW 13.8 mph 20.7 mph N/A   Mostly Cloudy
8:15 PM 74.8 °F - 63.3 °F 67% 29.72 in 10.0 mi NW 13.8 mph 20.7 mph N/A   Scattered Clouds
8:35 PM 74.3 °F - 61.0 °F 63% 29.72 in 10.0 mi NW 10.4 mph 18.4 mph N/A   Scattered Clouds
8:54 PM 72.9 °F - 60.4 °F 65% 29.73 in 10.0 mi NW 9.2 mph - N/A   Scattered Clouds
9:15 PM 71.6 °F - 61.5 °F 70% 29.73 in 10.0 mi NW 6.9 mph - N/A   Clear
9:34 PM 70.7 °F - 61.9 °F 74% 29.74 in 10.0 mi NW 6.9 mph - N/A   Clear
9:55 PM 70.0 °F - 61.9 °F 75% 29.74 in 10.0 mi NNW 6.9 mph - N/A   Scattered Clouds
10:15 PM 69.3 °F - 61.7 °F 77% 29.75 in 10.0 mi NNW 4.6 mph - N/A   Scattered Clouds
10:34 PM 68.9 °F - 60.4 °F 74% 29.75 in 10.0 mi NW 5.8 mph - N/A   Clear
10:55 PM 68.2 °F - 60.3 °F 76% 29.75 in 10.0 mi NW 3.5 mph - N/A   Clear
11:14 PM 64.9 °F - 60.1 °F 84% 29.75 in 10.0 mi WSW 3.5 mph - N/A   Clear
11:35 PM 63.5 °F - 59.9 °F 88% 29.75 in 10.0 mi West 3.5 mph - N/A   Clear
11:55 PM 63.1 °F - 59.7 °F 89% 29.75 in 10.0 mi SW 3.5 mph - N/A   Clear